This demonstration page uses our WeatherBlox Daily Observations layout. Learn more.

38.89511, -77.03637

Hourly Observations for April 19, 2017

Temp ( °F °C ) Dew Point ( °F °C ) Humidity (%) Winds ( mph kmh ) Pressure ( in mb ) Visibility ( mi km ) Precip ( " mm )
12:52 am 00:52 Mostly Clear 54 12.2 43 6.1 67 67 SE 8 13 30.42 1030 10 16.09344 0 0
1:52 am 01:52 Partly Cloudy 53 11.7 43 6.1 69 69 SE 5 7 30.42 1030 10 16.09344 0 0
2:52 am 02:52 Cloudy 53 11.7 45 7.2 74 74 E 3 6 30.42 1030 10 16.09344 0 0
3:52 am 03:52 Mostly Cloudy 53 11.7 47 8.3 80 80 ESE 5 7 30.42 1030 10 16.09344 0 0
4:52 am 04:52 Cloudy 54 12.2 48 8.9 80 80 E 7 11 30.42 1030 10 16.09344 0 0
5:52 am 05:52 Cloudy 53 11.7 49 9.4 86 86 SE 5 7 30.42 1030 10 16.09344 0.001 0.001
6:28 am 06:28 Cloudy with Light Rain 54 12 48 9 82 82 SSE 7 11 30.45 1031 10 16.09344 0 0
6:52 am 06:52 Cloudy with Light Rain 53 11.7 48 8.9 83 83 SE 8 13 30.45 1031 10 16.09344 0.001 0.001
7:42 am 07:42 Cloudy 54 12 48 9 82 82 ESE 12 19 30.45 1031 10 16.09344 0 0
7:52 am 07:52 Cloudy 53 11.7 49 9.4 86 86 ESE 10 17 30.45 1031 10 16.09344 0.001 0.001
8:52 am 08:52 Cloudy 55 12.8 48 8.9 77 77 ESE 12 19 30.45 1031 10 16.09344 0 0
9:48 am 09:48 Cloudy 57 14 48 9 72 72 SSE 9 15 30.45 1031 10 16.09344 0 0
9:52 am 09:52 Cloudy 57 13.9 49 9.4 74 74 SSE 8 13 30.42 1030 10 16.09344 0 0
10:08 am 10:08 Cloudy 57 14 48 9 72 72 SE 8 13 30.45 1031 10 16.09344 0 0
10:52 am 10:52 Cloudy with Light Rain 58 14.4 50 10 75 75 S 9 15 30.42 1030 10 16.09344 0.001 0.001
11:52 am 11:52 Cloudy 60 15.6 48 8.9 65 65 S 12 19 30.39 1029 10 16.09344 0.001 0.001
12:52 pm 12:52 Cloudy 59 15 48 8.9 67 67 S 9 15 30.36 1028 10 16.09344 0 0
1:52 pm 13:52 Cloudy 61 16.1 49 9.4 65 65 S 7 11 30.36 1028 10 16.09344 0 0
2:52 pm 14:52 Cloudy 61 16.1 48 8.9 63 63 S 10 17 30.33 1027 10 16.09344 0 0
3:52 pm 15:52 Cloudy 62 16.7 49 9.4 62 62 SSE 12 19 30.3 1026 10 16.09344 0 0
4:52 pm 16:52 Cloudy 62 16.7 50 10 65 65 S 12 19 30.27 1025 10 16.09344 0 0
5:52 pm 17:52 Cloudy 62 16.7 52 11.1 70 70 S 7 11 30.27 1025 10 16.09344 0 0
6:52 pm 18:52 Cloudy 63 17.2 52 11.1 68 68 S 7 11 30.24 1024 10 16.09344 0 0
7:52 pm 19:52 Cloudy 62 16.7 52 11.1 70 70 SSW 10 17 30.24 1024 10 16.09344 0 0
8:50 pm 20:50 Cloudy 63 17 54 12 73 73 S 8 13 30.24 1024 10 16.09344 0 0
8:52 pm 20:52 Cloudy 62 16.7 53 11.7 73 73 S 9 15 30.24 1024 10 16.09344 0 0
9:52 pm 21:52 Cloudy 62 16.7 54 12.2 75 75 S 13 20 30.24 1024 10 16.09344 0 0
10:52 pm 22:52 Cloudy 61 16.1 54 12.2 78 78 S 14 22 30.18 1022 10 16.09344 0 0
11:52 pm 23:52 Cloudy 61 16.1 54 12.2 78 78 SSW 9 15 30.18 1022 10 16.09344 0 0

Powered by AerisWeather